TimeEST,TemperatureF,Dew PointF,Humidity,Sea Level PressureIn,VisibilityMPH,Wind Direction,Wind SpeedMPH,Gust SpeedMPH,PrecipitationIn,Events,Conditions,WindDirDegrees,DateUTC
12:43 AM,35.6,32.0,87,30.08,6.0,NNE,4.6,-,0.00,Rain,Light Rain,30,2013-03-06 05:43:00
12:51 AM,36.0,33.1,89,30.09,9.0,Calm,Calm,-,0.00,Rain,Light Rain,0,2013-03-06 05:51:00
1:51 AM,35.1,32.0,89,30.09,7.0,NE,8.1,-,0.00,,Overcast,40,2013-03-06 06:51:00
2:11 AM,35.6,32.0,87,30.09,6.0,NE,4.6,-,N/A,,Overcast,40,2013-03-06 07:11:00
2:51 AM,34.0,32.0,92,30.09,6.0,NNE,6.9,-,0.00,Snow,Light Snow,30,2013-03-06 07:51:00
3:51 AM,34.0,32.0,92,30.09,10.0,NE,10.4,17.3,0.00,,Overcast,50,2013-03-06 08:51:00
4:51 AM,34.0,32.0,92,30.11,4.0,NE,8.1,-,0.00,Snow,Light Snow,50,2013-03-06 09:51:00
5:04 AM,33.8,32.0,93,30.11,2.5,NE,8.1,-,0.00,Snow,Light Snow,40,2013-03-06 10:04:00
5:51 AM,34.0,32.0,92,30.12,3.0,NE,9.2,-,0.01,Snow,Light Snow,50,2013-03-06 10:51:00
6:34 AM,33.8,30.2,87,30.12,4.0,NE,10.4,24.2,0.00,Snow,Light Snow,50,2013-03-06 11:34:00
6:51 AM,34.0,30.9,89,30.13,10.0,NE,10.4,20.7,0.00,,Overcast,50,2013-03-06 11:51:00
7:29 AM,35.6,30.2,81,30.14,9.0,ENE,9.2,18.4,0.00,,Overcast,70,2013-03-06 12:29:00
7:37 AM,35.6,30.2,81,30.15,10.0,ENE,9.2,-,0.00,,Overcast,60,2013-03-06 12:37:00
7:51 AM,35.1,30.9,85,30.15,10.0,NE,11.5,18.4,0.00,,Overcast,50,2013-03-06 12:51:00
8:10 AM,35.6,30.2,81,30.16,10.0,NE,13.8,19.6,N/A,,Overcast,50,2013-03-06 13:10:00
8:24 AM,35.6,30.2,81,30.16,10.0,ENE,12.7,19.6,N/A,,Overcast,60,2013-03-06 13:24:00
8:51 AM,35.1,28.9,78,30.17,9.0,ENE,11.5,18.4,N/A,,Overcast,60,2013-03-06 13:51:00
9:51 AM,37.0,27.0,67,30.16,10.0,ENE,16.1,27.6,N/A,,Overcast,60,2013-03-06 14:51:00
10:29 AM,37.4,26.6,65,30.16,10.0,ENE,11.5,26.5,N/A,,Overcast,60,2013-03-06 15:29:00
10:51 AM,37.0,26.1,65,30.16,10.0,ENE,12.7,21.9,N/A,,Overcast,60,2013-03-06 15:51:00
11:12 AM,37.4,26.6,65,30.16,10.0,ENE,10.4,26.5,N/A,,Overcast,60,2013-03-06 16:12:00
11:51 AM,37.0,27.0,67,30.16,10.0,ENE,11.5,27.6,N/A,,Overcast,70,2013-03-06 16:51:00
12:17 PM,37.4,26.6,65,30.14,10.0,NE,15.0,25.3,N/A,,Overcast,50,2013-03-06 17:17:00
12:36 PM,35.6,28.4,75,30.14,9.0,NE,21.9,33.4,0.00,,Overcast,50,2013-03-06 17:36:00
12:51 PM,36.0,28.9,76,30.15,9.0,ENE,17.3,23.0,0.00,,Overcast,70,2013-03-06 17:51:00
1:51 PM,37.0,28.0,70,30.14,10.0,ENE,12.7,25.3,0.00,,Overcast,70,2013-03-06 18:51:00
2:06 PM,37.4,26.6,65,30.14,10.0,ENE,15.0,29.9,N/A,,Overcast,60,2013-03-06 19:06:00
2:51 PM,37.0,24.1,59,30.15,10.0,East,20.7,32.2,N/A,,Overcast,80,2013-03-06 19:51:00
3:29 PM,35.6,26.6,70,30.14,10.0,NE,18.4,26.5,N/A,,Overcast,40,2013-03-06 20:29:00
3:51 PM,35.1,27.0,72,30.15,9.0,ENE,16.1,29.9,N/A,,Overcast,70,2013-03-06 20:51:00
4:13 PM,35.6,26.6,70,30.15,10.0,NE,13.8,27.6,0.00,,Overcast,50,2013-03-06 21:13:00
4:51 PM,34.0,27.0,75,30.16,8.0,ENE,10.4,21.9,0.00,,Overcast,60,2013-03-06 21:51:00
5:51 PM,34.0,27.0,75,30.17,8.0,NE,13.8,19.6,N/A,,Overcast,50,2013-03-06 22:51:00
6:51 PM,33.1,27.0,78,30.18,10.0,NE,9.2,18.4,N/A,,Overcast,50,2013-03-06 23:51:00
7:51 PM,34.0,26.1,73,30.16,10.0,NE,13.8,20.7,0.00,,Overcast,40,2013-03-07 00:51:00
8:00 PM,33.8,26.6,75,30.15,10.0,NNE,10.4,20.7,N/A,,Overcast,30,2013-03-07 01:00:00
8:51 PM,33.1,26.1,75,30.16,10.0,NNE,11.5,24.2,N/A,,Overcast,30,2013-03-07 01:51:00
9:00 PM,33.8,26.6,75,30.15,10.0,NNE,9.2,24.2,N/A,,Overcast,30,2013-03-07 02:00:00
9:49 PM,33.8,24.8,70,30.15,10.0,NE,13.8,25.3,N/A,,Overcast,40,2013-03-07 02:49:00
9:51 PM,33.1,25.0,72,30.15,10.0,NE,16.1,25.3,N/A,,Overcast,40,2013-03-07 02:51:00
9:58 PM,32.0,26.6,80,30.14,10.0,NNE,11.5,20.7,N/A,,Overcast,20,2013-03-07 02:58:00
10:51 PM,32.0,25.0,75,30.14,10.0,NNE,10.4,18.4,N/A,,Overcast,20,2013-03-07 03:51:00
11:51 PM,32.0,26.1,79,30.13,10.0,NNE,10.4,17.3,N/A,,Overcast,20,2013-03-07 04:51:00